Theta_e
314 314 314 313 313 314 314 315 315 315 315 313 311 309 308 306 305 306 306 307 307 307 307 307 307 307 307 307 306 307 307 309 314 317 320 320 314 313 312 312 313 312 312 312 313 314 314 314 314 314 316 318 320 323 321 321 322 324 325 323 319 321 321 321 320 319 320 319 316 317 317 317 316 315 315 315 315 316 316 317 317 318 317 318 329 333 331 331
314 314 313 313 313 314 314 314 314 314 314 313 312 310 308 306 306 305 306 307 307 307 307 307 307 307 307 307 307 308 307 311 318 321 321 317 311 313 314 313 314 313 313 315 315 314 314 315 314 314 316 319 319 322 322 322 321 322 324 321 320 323 320 319 319 318 320 318 316 317 317 316 316 316 315 315 316 316 316 317 317 318 317 316 325 331 329 330
314 313 313 313 313 313 313 313 313 313 313 313 312 311 309 307 306 305 306 306 307 307 307 307 307 307 307 306 308 307 309 316 319 320 319 313 312 314 314 314 314 313 314 317 316 314 314 315 314 314 316 316 317 320 322 321 319 321 324 322 321 321 319 318 318 317 317 318 317 316 316 317 316 316 315 315 315 316 316 316 316 317 318 317 322 328 328 329
313 312 312 313 312 312 313 313 313 314 314 313 312 311 309 307 306 306 306 306 306 307 307 307 307 308 307 307 308 308 315 320 317 319 316 311 313 313 313 313 314 314 314 315 315 314 314 314 314 314 315 315 317 318 318 319 320 319 320 320 319 318 318 317 316 316 317 318 318 317 316 316 317 317 315 316 315 316 316 317 317 316 319 318 319 326 328 328
313 312 312 312 312 312 312 313 314 314 314 314 313 311 309 308 306 306 306 306 306 306 307 307 307 307 306 307 307 311 320 318 316 319 314 311 313 312 313 313 313 314 314 314 314 314 314 314 314 315 315 316 317 316 315 317 317 318 318 318 318 317 318 316 315 316 317 318 318 317 316 316 317 317 316 316 316 317 317 317 318 318 320 318 318 325 327 328
312 311 312 311 311 311 312 312 313 313 314 314 312 310 309 308 307 306 306 306 306 306 307 307 307 307 306 308 307 311 319 314 316 319 312 312 313 312 313 313 314 313 313 314 314 315 314 314 315 315 315 316 316 315 315 316 315 317 317 317 316 317 317 315 315 315 316 317 317 317 316 316 316 316 317 317 316 317 318 319 319 319 320 317 318 324 326 328
311 311 311 311 310 311 311 311 311 312 312 312 311 310 308 308 307 306 306 306 306 306 306 307 307 307 306 308 310 314 318 315 317 316 311 312 312 312 314 314 315 314 314 315 315 315 315 314 314 315 315 315 316 315 316 316 315 316 316 316 316 316 316 315 315 314 315 316 316 316 316 316 317 316 317 317 317 317 318 318 316 317 318 318 319 322 324 326
311 311 311 310 310 310 310 310 310 310 311 310 310 309 308 307 307 306 306 306 306 306 307 307 306 307 306 310 316 317 317 318 318 314 311 312 311 313 314 315 316 315 316 316 315 315 315 314 314 315 316 316 315 315 316 315 314 315 316 316 315 315 315 314 314 314 315 315 315 316 316 317 317 316 317 318 317 318 318 317 316 315 316 318 319 321 323 324
310 311 310 309 309 309 309 310 309 309 309 310 309 308 308 307 307 306 306 305 306 306 307 306 306 307 306 312 318 316 315 318 316 313 311 312 312 313 315 316 316 316 317 315 314 315 315 315 315 316 316 316 315 315 315 315 315 316 316 316 316 316 314 314 315 314 315 315 315 316 316 317 316 315 316 317 317 317 318 318 318 317 316 317 319 320 321 322
310 310 310 309 309 308 308 308 308 309 309 310 308 307 307 307 306 306 306 306 306 306 307 306 307 308 308 313 316 314 316 316 314 314 312 311 312 314 316 316 316 317 316 314 315 315 316 317 316 317 317 316 316 316 316 316 317 316 317 317 316 316 315 315 315 314 315 316 315 315 317 317 316 316 316 317 318 318 319 318 318 318 317 316 318 319 319 319
310 310 309 309 309 308 308 309 309 310 310 310 310 308 308 307 306 306 306 306 305 306 306 307 308 309 314 315 313 314 317 316 314 313 311 312 313 314 316 315 315 317 317 316 316 316 317 318 317 317 317 316 315 316 317 316 317 317 317 317 316 316 316 316 316 315 316 315 314 315 317 317 316 317 316 318 320 319 318 318 317 318 319 317 317 318 318 317
310 310 310 309 309 309 309 309 309 310 311 311 310 309 308 307 306 306 306 305 305 306 306 308 308 310 315 315 313 316 316 315 314 312 312 313 313 314 316 315 315 316 317 317 317 316 316 317 317 316 316 316 315 316 316 316 317 317 317 317 316 316 316 316 316 316 316 315 316 315 317 317 317 318 316 318 320 318 318 318 318 318 318 319 318 319 319 317
310 311 311 310 310 310 310 309 310 311 311 310 309 309 308 307 307 306 306 305 306 306 307 308 308 310 314 314 315 316 315 314 313 312 312 313 314 315 315 316 315 314 316 317 315 314 315 316 317 317 317 317 316 315 316 316 317 317 317 317 318 317 316 317 317 317 316 316 316 315 317 318 317 318 318 319 319 318 318 318 318 319 319 319 319 320 322 319
310 311 311 311 310 310 310 310 311 311 310 309 308 308 307 306 306 306 307 306 306 307 308 309 309 312 313 311 315 315 314 313 313 313 313 313 315 315 315 316 314 315 316 315 315 314 315 317 317 317 317 317 317 316 316 316 316 317 316 317 319 317 316 318 318 318 316 316 317 315 316 318 317 319 319 319 319 318 318 318 318 319 318 320 321 322 323 321
311 311 311 311 310 310 310 311 311 310 309 308 307 307 307 307 306 306 306 306 307 307 307 309 310 313 312 310 314 315 313 313 315 314 313 315 317 316 315 315 314 315 315 315 315 315 316 317 317 317 316 316 317 317 317 316 316 317 317 317 319 317 317 319 317 318 317 316 316 316 316 317 317 319 319 318 318 318 318 318 318 319 319 320 322 322 322 321
311 311 310 311 310 310 311 312 311 310 308 308 307 307 307 307 307 307 306 307 308 307 309 314 313 311 312 313 315 315 313 315 316 314 313 316 318 317 316 315 315 315 315 315 316 317 317 317 319 319 317 316 317 319 319 317 317 318 317 316 318 317 317 319 317 317 317 316 316 316 317 317 317 318 318 317 318 318 318 318 318 319 319 320 322 321 322 321
312 311 311 310 310 310 311 311 311 310 309 308 307 307 307 308 308 308 307 308 310 309 312 316 312 310 311 312 313 314 315 317 316 313 313 316 317 316 316 316 316 316 316 317 317 318 317 316 319 320 317 316 318 318 319 317 316 318 318 316 318 318 317 316 316 317 317 317 317 317 317 317 317 317 318 318 318 319 320 319 319 320 320 322 323 322 322 321
312 312 311 311 311 311 310 311 311 310 309 307 308 308 307 307 309 312 311 308 310 310 311 311 310 311 310 309 313 316 317 317 316 313 313 315 315 316 317 316 316 316 317 317 317 317 318 317 318 318 318 316 317 318 319 319 317 317 318 316 316 317 316 315 316 317 317 317 317 317 317 317 317 317 318 318 318 319 319 319 319 319 320 321 323 323 322 322
313 313 312 312 312 311 310 310 311 310 308 308 310 310 310 310 312 316 315 311 310 309 310 311 310 312 312 312 315 317 317 316 314 314 313 314 315 316 317 316 317 317 316 317 317 316 319 319 318 320 321 317 317 318 319 319 315 315 317 316 315 315 315 315 316 316 316 317 317 317 316 316 317 317 318 318 318 319 319 319 319 319 320 320 321 322 321 323
314 314 314 314 314 312 312 311 311 310 309 310 313 315 315 316 316 314 313 312 310 311 312 312 310 312 314 315 316 315 315 315 314 315 314 314 315 316 316 316 318 318 317 319 319 317 318 321 321 322 321 318 317 317 317 317 314 314 316 316 316 315 315 316 317 316 315 316 316 317 317 316 317 317 317 318 318 319 319 319 319 320 321 321 321 321 321 321
316 316 315 315 314 314 314 312 312 310 309 311 315 318 315 314 315 313 312 310 311 312 312 312 312 314 316 315 314 314 315 315 315 316 315 314 315 316 316 316 317 317 317 319 318 316 317 320 322 321 318 317 317 316 316 315 314 315 315 315 316 316 316 317 317 315 315 316 316 316 316 315 316 316 317 319 318 318 317 317 318 318 319 321 322 321 321 320
318 317 317 316 315 315 315 314 313 310 309 311 315 318 315 312 311 311 313 311 313 314 311 311 313 313 315 315 314 315 316 314 315 317 315 314 316 316 315 315 315 315 318 319 318 318 319 319 319 317 317 317 317 316 315 315 316 316 316 317 318 320 318 317 316 315 314 316 316 316 316 315 315 316 316 317 317 317 317 316 317 318 319 322 322 321 322 322
319 319 318 317 316 316 315 315 314 310 309 313 316 317 315 311 308 310 314 314 314 315 311 311 312 312 314 314 314 316 316 314 315 317 315 314 316 316 315 314 314 316 318 317 318 320 319 318 316 316 317 316 315 315 314 315 316 318 318 317 318 321 319 315 315 316 315 315 317 318 318 317 316 317 316 316 316 315 316 317 318 321 322 323 323 322 324 325
320 320 319 319 317 317 316 316 315 313 313 314 316 317 314 311 309 312 318 316 312 314 313 312 313 313 314 314 314 315 315 314 316 316 314 315 315 315 315 314 313 316 317 316 317 318 317 316 317 317 316 316 316 315 315 315 315 319 322 319 318 319 318 317 317 318 316 317 320 320 320 321 320 321 321 319 318 317 316 318 320 324 325 325 325 326 327 327
321 320 320 319 318 318 316 316 317 316 316 314 313 314 312 311 310 312 318 315 312 315 314 314 314 313 314 314 314 315 314 313 316 316 314 315 315 314 316 314 314 315 315 316 316 316 315 315 317 318 316 317 316 316 318 318 315 317 323 323 320 317 317 320 322 320 316 317 320 319 320 324 323 322 324 322 321 320 319 321 323 324 325 326 327 327 328 329
321 321 321 320 318 318 317 318 319 317 317 317 315 312 309 309 310 312 316 313 312 314 313 312 312 312 313 315 315 314 313 313 315 316 314 315 315 313 314 314 314 314 314 316 316 317 316 315 318 320 320 321 319 317 320 321 315 314 322 326 322 319 321 323 322 320 318 318 319 318 319 321 317 315 318 317 317 318 318 323 326 324 324 326 327 327 328 329
321 320 321 320 319 319 319 320 319 317 319 319 317 311 308 309 310 312 315 314 315 315 312 311 310 311 313 314 314 312 313 314 315 315 314 315 314 313 314 313 314 314 314 318 319 319 317 317 321 322 322 324 321 318 320 320 317 318 325 326 322 320 322 323 321 319 320 321 321 320 319 320 319 316 316 316 315 315 315 319 324 323 323 326 328 330 330 330
320 320 321 320 319 319 320 320 318 319 319 318 314 310 308 309 311 314 313 314 318 316 313 311 308 311 314 313 313 311 311 314 315 315 314 313 314 314 313 313 314 314 315 319 319 319 318 320 324 322 322 323 321 322 325 320 319 323 325 324 323 323 323 322 321 320 322 321 321 324 321 320 322 319 317 318 315 316 317 318 319 320 323 328 330 331 330 329
320 320 320 320 320 320 319 319 319 321 319 316 313 309 309 310 313 317 314 313 318 315 312 311 309 312 314 313 313 311 310 313 315 315 313 312 314 313 313 313 313 314 315 315 318 321 320 317 320 322 321 321 320 324 330 324 321 324 325 323 324 325 323 323 322 321 323 319 318 326 325 317 316 316 316 318 316 318 320 319 319 321 329 335 334 331 327 325
319 320 320 320 319 319 318 319 320 320 319 315 311 308 311 314 316 318 314 313 319 316 310 310 311 313 313 312 313 311 311 314 314 314 313 313 314 313 313 314 313 316 318 317 317 318 316 313 316 320 318 318 319 320 324 326 323 324 325 324 323 323 323 323 321 320 321 319 318 326 325 316 314 317 319 319 318 320 319 318 323 329 333 334 334 331 325 324
318 319 320 319 319 318 318 319 319 320 319 314 309 311 314 318 319 318 314 314 319 317 310 310 312 312 312 312 313 311 311 314 314 314 314 315 315 313 314 315 315 318 321 321 320 318 317 316 318 318 315 316 318 318 320 322 323 324 323 322 321 322 323 322 321 322 321 319 320 326 325 317 315 318 320 320 319 320 320 320 323 330 334 332 328 326 323 323
316 318 318 318 319 318 318 320 319 320 319 312 311 318 320 320 320 320 318 314 316 317 314 314 313 312 311 313 313 311 311 314 314 314 315 316 315 314 314 315 316 318 320 320 321 322 322 321 321 319 316 316 319 321 320 320 323 324 321 321 320 320 323 324 326 327 324 319 321 324 323 319 316 315 318 319 318 319 321 322 323 327 334 336 331 326 324 325
314 316 317 317 318 318 318 319 319 320 318 313 315 322 323 322 321 321 318 315 316 318 317 315 314 312 312 313 314 313 313 315 314 314 316 317 316 315 315 315 315 316 318 317 320 324 322 322 322 319 317 317 318 320 320 319 321 322 321 323 322 319 321 323 324 327 325 322 322 321 321 322 319 316 318 318 318 320 322 323 326 326 328 335 338 331 327 326
313 314 315 317 318 318 318 318 318 319 316 314 317 321 321 322 322 320 319 318 319 319 317 316 315 313 312 313 314 313 314 316 314 314 318 318 317 317 316 316 315 315 316 315 319 322 321 322 323 319 317 318 318 318 319 320 320 319 319 320 322 319 317 318 320 323 325 324 321 318 321 325 321 318 320 321 321 324 324 324 326 326 325 332 338 336 332 329
312 313 314 316 317 317 318 318 318 316 314 315 318 319 319 321 322 322 321 321 320 318 316 316 315 315 314 315 315 313 315 318 316 314 318 318 317 317 316 315 314 315 316 315 318 320 318 321 322 319 318 317 317 318 318 319 318 318 319 319 322 321 315 316 320 321 321 322 321 323 325 326 321 317 319 319 320 321 323 326 325 325 327 328 333 336 334 331
311 312 314 316 317 317 317 317 317 315 314 316 318 318 319 320 322 323 321 321 321 318 316 316 316 316 315 317 318 316 317 321 319 317 319 319 317 317 317 317 315 314 315 315 316 318 319 322 323 320 317 315 318 320 319 319 319 319 321 320 322 322 316 317 321 320 318 318 319 322 322 320 315 316 317 317 316 316 320 325 324 326 327 325 329 333 331 331
311 313 314 315 316 317 317 317 316 314 314 317 320 320 319 320 322 322 321 322 320 317 317 318 318 317 315 317 319 318 317 320 319 318 319 319 318 318 317 317 316 314 314 314 316 319 319 322 322 320 318 318 320 322 321 323 323 322 323 321 320 322 319 318 320 320 320 318 317 315 315 314 312 315 320 319 317 316 317 320 322 324 326 324 327 329 327 330
312 313 314 315 315 316 317 316 315 313 314 317 319 318 317 318 322 322 322 323 321 318 319 320 319 318 317 317 318 317 317 318 318 317 318 317 318 318 316 317 318 315 314 314 316 319 318 318 319 319 319 319 318 319 321 322 321 322 323 320 320 324 323 320 317 317 319 318 317 315 315 315 312 313 316 317 319 321 319 318 319 321 322 324 326 326 327 331
311 312 313 314 314 315 316 315 313 313 316 317 317 317 315 316 318 320 321 323 324 322 320 320 320 319 318 318 319 318 315 316 317 316 317 317 317 318 315 316 319 317 315 315 315 317 318 318 319 318 317 318 317 318 320 321 319 320 321 320 322 323 323 323 318 315 316 316 315 316 316 316 314 313 314 315 319 321 318 318 318 319 322 325 325 327 332 335
311 312 313 313 314 315 315 313 313 314 316 317 315 315 315 315 317 319 320 321 323 324 323 325 323 320 320 319 319 319 316 316 319 317 316 316 317 318 315 315 319 319 316 316 316 316 317 316 318 318 316 318 319 318 317 319 319 320 320 321 322 321 322 324 322 318 317 317 315 315 316 316 315 315 317 317 317 319 319 320 322 323 324 326 329 334 340 339
310 311 313 314 314 315 314 313 313 314 316 317 316 315 316 316 317 319 319 319 321 321 322 325 324 324 325 322 321 322 318 316 318 318 317 316 316 318 318 316 317 319 318 317 317 316 316 315 318 320 318 319 319 317 317 318 318 317 317 318 319 319 320 322 321 319 319 319 318 317 319 318 315 315 318 316 318 325 329 327 326 328 328 331 335 335 335 334
310 310 312 315 315 314 313 314 314 314 316 317 316 316 316 317 317 318 319 319 319 319 320 321 322 323 325 325 325 325 322 318 319 319 318 317 317 319 320 320 318 318 319 318 317 317 316 316 318 320 320 319 318 319 322 323 321 319 317 316 316 317 318 319 320 322 323 321 319 320 321 318 315 317 320 319 323 331 334 328 325 328 329 332 335 330 326 326
308 309 312 315 315 313 314 315 315 315 316 316 316 316 316 317 317 318 319 318 319 319 320 320 320 321 322 323 323 323 323 322 322 322 321 320 319 319 321 324 322 319 318 318 318 318 318 318 318 318 319 320 320 319 320 320 320 321 322 319 318 318 318 318 320 324 326 324 321 321 320 317 317 325 328 328 329 329 330 329 327 329 329 329 330 328 326 325
306 307 310 313 314 313 314 315 315 316 315 315 316 316 317 317 317 318 318 318 318 319 319 319 319 320 321 321 321 322 323 323 322 321 321 321 320 319 322 326 324 319 320 321 320 318 317 319 319 317 318 320 321 320 320 319 319 320 321 321 321 321 321 319 319 321 323 324 323 322 319 316 319 327 328 326 327 325 325 328 327 328 331 330 328 327 327 325
306 306 307 311 314 313 313 314 314 315 315 315 316 316 317 318 317 317 318 317 317 318 318 318 318 319 320 321 321 320 320 320 320 320 321 321 320 321 323 325 324 322 322 323 323 320 320 321 318 317 318 319 320 323 324 322 320 319 320 321 321 322 323 322 322 322 321 321 322 321 318 316 317 322 322 322 324 323 321 323 323 324 327 328 327 328 329 326
306 307 306 309 312 312 312 312 312 313 314 314 315 315 316 317 317 317 318 318 317 317 317 318 318 319 319 320 321 320 318 319 319 319 322 322 322 322 320 320 322 320 318 321 324 324 322 321 318 317 318 317 319 324 325 323 320 319 320 320 320 321 322 322 323 322 320 319 319 319 318 317 317 317 319 320 322 323 322 323 324 325 328 329 330 331 329 327
306 307 306 307 310 310 311 311 312 312 313 314 314 314 315 316 316 317 317 317 318 317 318 319 319 319 319 319 320 320 319 319 319 318 320 321 321 320 316 317 319 317 317 319 322 323 322 319 318 318 318 317 319 322 322 321 320 318 318 318 319 320 322 322 321 320 319 320 319 318 318 319 317 315 316 318 319 321 322 322 322 324 328 333 333 330 327 327
305 306 306 307 308 308 309 310 310 311 312 313 314 313 314 315 315 316 316 316 317 318 318 319 319 319 319 319 320 320 320 321 320 319 319 319 320 320 317 318 317 315 317 317 317 323 323 319 318 319 318 319 318 318 320 321 320 319 319 319 318 319 320 321 321 319 318 320 319 318 319 319 317 315 316 317 318 319 319 320 320 320 323 328 328 327 326 327
303 304 305 307 308 308 308 308 309 311 311 312 313 313 313 314 314 315 316 316 317 317 317 318 318 318 319 319 319 320 320 321 320 319 319 318 320 320 320 319 315 312 316 316 314 319 321 318 317 317 318 319 318 317 319 320 319 319 320 321 320 320 319 319 319 318 318 319 318 318 319 318 317 315 316 318 320 319 318 318 318 318 319 322 324 325 326 326
302 303 304 307 308 308 308 308 310 310 310 311 313 313 313 314 313 314 315 316 316 316 316 317 318 318 318 318 319 319 319 320 320 319 319 318 319 320 319 320 317 313 313 315 315 316 317 317 315 315 317 318 317 317 318 318 319 319 319 320 321 321 320 319 318 318 318 318 318 318 319 318 316 315 316 317 318 317 317 317 317 317 318 320 323 324 325 324
301 302 303 306 307 307 308 309 310 311 310 310 311 312 312 313 313 313 314 315 316 316 316 316 317 317 318 317 318 318 318 318 319 319 318 318 318 318 318 319 320 316 313 314 315 315 315 315 313 314 318 319 318 318 318 317 318 318 318 319 319 319 320 319 320 319 319 318 318 319 319 318 316 316 317 318 317 317 317 317 317 318 319 320 321 322 322 322
300 300 301 303 306 306 307 308 309 310 310 310 310 310 311 312 313 313 313 314 315 316 316 316 316 316 317 317 317 317 317 317 318 319 319 318 318 318 318 318 319 317 315 314 314 313 313 314 314 316 318 319 319 320 319 318 318 319 320 319 318 318 318 318 319 320 319 319 319 319 318 317 316 317 317 317 317 317 317 317 317 318 319 321 322 321 321 320
Wind_Speed
6 6 6 4 3 2 1 1 1 1 1 1 2 3 3 4 5 5 6 7 7 7 7 6 6 5 4 4 4 4 4 3 3 6 6 3 4 6 6 5 4 5 5 5 4 3 4 5 5 4 5 3 0 1 1 0 1 0 1 1 4 3 1 0 2 3 4 7 5 6 7 5 6 3 2 1 0 2 3 3 4 6 7 9 14 17 17 17
7 6 5 4 4 3 2 1 1 1 1 1 1 2 4 4 5 6 6 6 7 7 7 6 6 5 4 4 4 4 4 3 5 7 6 5 6 6 5 5 4 5 5 5 5 6 5 3 5 5 4 3 1 1 1 0 0 1 1 3 3 1 2 4 6 5 4 5 6 6 6 4 6 6 4 2 4 5 4 4 5 6 6 9 13 16 16 16
7 6 5 4 4 3 2 1 1 1 1 1 1 2 3 4 5 6 6 6 7 7 7 6 6 5 4 4 4 4 3 3 5 4 6 8 7 6 5 4 4 5 5 3 3 5 7 5 3 5 3 2 1 1 1 1 1 0 0 2 1 2 3 6 8 6 5 3 6 7 3 1 5 6 4 3 5 7 7 6 7 7 7 8 10 14 17 16
8 7 5 5 4 2 1 1 0 0 1 1 1 2 2 4 5 5 6 6 7 7 7 6 6 5 5 4 4 3 2 2 2 4 9 9 7 6 5 4 4 4 3 2 2 4 7 6 3 4 3 1 2 2 2 2 1 1 1 1 2 4 3 6 7 6 5 4 3 6 2 1 4 4 4 4 3 5 6 6 7 9 11 11 10 13 16 16
9 7 5 5 4 2 2 2 1 1 0 2 2 3 3 3 4 5 6 6 7 7 7 7 6 5 5 4 4 1 0 2 1 4 10 10 8 6 5 4 4 3 3 2 2 4 5 6 4 2 3 1 4 2 3 3 1 1 2 3 3 4 3 3 4 5 5 3 2 6 3 1 4 3 4 5 4 3 2 2 2 3 10 14 12 13 14 13
12 7 5 5 4 3 3 2 3 2 2 3 4 4 4 3 4 5 5 6 7 8 7 7 6 5 4 3 3 1 1 1 1 3 9 10 8 6 4 4 3 2 3 1 3 4 4 5 4 3 3 2 5 3 3 4 1 0 1 5 5 4 3 2 3 3 5 3 3 3 0 2 4 2 5 6 6 3 4 6 6 7 12 18 16 14 12 11
13 7 6 6 5 5 3 3 4 4 4 4 4 4 4 4 4 4 5 6 7 7 8 7 6 5 4 2 1 1 2 0 2 4 9 9 8 6 4 4 3 2 2 2 5 4 4 5 4 3 3 2 5 4 2 3 2 1 1 4 3 4 4 3 2 1 5 4 3 2 2 1 3 2 0 5 7 3 6 8 7 9 13 18 14 11 11 12
12 9 8 8 7 5 4 3 4 5 5 4 4 4 5 5 4 4 5 6 7 7 7 7 6 5 4 3 1 2 3 1 2 6 9 8 7 5 4 4 3 2 0 4 5 2 3 5 4 3 1 0 2 4 2 3 3 2 1 4 2 2 5 3 3 2 2 2 3 3 3 1 2 1 2 4 7 5 5 8 8 9 10 11 11 10 10 11
12 10 9 8 7 5 4 3 3 4 3 3 3 4 4 4 4 5 5 6 7 7 7 7 6 4 4 4 2 2 2 4 5 7 9 7 5 5 4 3 2 2 2 3 4 4 2 2 3 1 1 1 2 4 1 1 2 1 3 5 4 4 4 3 3 3 1 0 2 2 4 1 3 2 4 8 8 8 6 8 7 8 7 7 8 10 10 9
12 10 9 7 6 5 4 3 2 2 0 2 2 3 4 4 4 5 6 6 7 7 7 6 5 4 4 4 3 2 1 5 6 7 9 7 5 5 3 2 1 3 4 2 2 4 2 3 2 2 2 1 2 1 2 2 0 1 4 5 5 5 4 1 2 4 1 1 2 2 4 1 2 0 4 5 5 6 7 7 7 7 7 7 7 8 10 10
11 9 8 6 5 4 3 2 1 1 0 1 1 2 4 4 4 5 5 6 7 7 7 6 5 5 3 3 3 2 2 5 6 8 9 6 5 3 1 1 1 2 3 1 2 3 3 6 5 2 2 2 3 2 3 0 2 1 5 6 5 4 4 2 2 5 3 1 0 2 5 3 3 2 7 5 1 4 7 6 7 7 6 7 8 8 9 10
9 8 7 6 5 3 2 2 1 0 1 1 1 2 4 4 5 5 5 6 6 6 6 5 5 4 2 2 3 1 3 5 8 9 8 5 4 3 2 1 1 2 5 1 3 2 2 4 5 2 2 0 4 3 1 3 1 2 3 3 5 5 3 5 4 4 3 1 1 1 4 6 5 9 12 7 5 4 6 6 6 7 6 7 7 7 7 10
9 8 7 5 5 4 2 2 1 1 1 1 1 3 4 4 4 5 6 6 6 6 5 5 4 3 1 1 1 3 5 7 8 8 7 6 4 3 2 2 2 1 3 2 5 3 4 4 4 1 2 2 2 2 1 2 1 2 3 1 4 3 3 7 6 5 3 2 2 2 2 6 6 11 10 7 8 6 6 6 6 6 6 6 6 6 7 9
9 7 7 5 3 4 3 2 1 1 2 2 2 3 3 4 5 5 5 6 6 5 5 4 4 3 1 0 2 3 6 9 8 7 8 7 4 4 4 3 3 2 3 5 6 4 4 4 3 2 2 3 2 2 1 2 0 2 2 1 2 2 2 5 5 6 4 0 2 2 1 7 5 3 1 5 7 7 6 7 6 6 6 7 6 7 6 8
8 7 7 5 2 2 2 1 1 1 2 2 2 3 3 3 4 4 5 6 5 4 4 4 4 3 1 0 2 4 7 9 6 6 8 8 4 4 5 5 6 6 5 7 7 6 5 3 1 2 2 2 2 2 3 3 2 1 2 2 3 2 1 3 3 6 4 1 3 4 2 8 6 1 3 4 5 5 5 6 6 7 6 7 7 7 6 7
8 6 6 5 3 3 3 1 1 1 1 1 2 2 3 3 3 4 5 5 5 5 4 3 4 3 1 1 3 4 5 4 5 7 9 8 4 5 7 7 8 7 6 7 7 5 4 3 2 0 1 0 1 3 3 3 2 2 3 3 3 3 3 2 0 1 4 2 3 4 3 5 3 4 5 4 5 6 5 6 7 7 7 7 7 7 7 7
7 6 5 4 2 3 4 2 1 1 1 2 2 2 3 3 4 4 5 6 5 5 3 1 3 3 1 2 3 3 4 5 6 8 9 8 6 7 8 5 5 5 5 4 3 2 1 2 1 1 1 1 4 3 3 2 3 3 4 3 2 3 3 3 0 0 3 2 3 5 5 6 7 5 4 5 6 7 7 7 8 7 7 7 6 7 7 8
6 5 4 3 2 2 3 2 1 2 2 1 2 4 5 6 7 7 6 7 7 4 1 3 1 2 1 2 3 3 6 8 8 7 9 7 6 7 4 2 4 4 4 2 0 0 1 1 1 0 1 2 4 3 4 3 2 2 3 3 3 3 4 2 2 2 4 1 3 5 6 8 11 11 7 7 8 8 8 8 8 8 8 7 7 7 7 9
6 5 5 4 3 1 1 1 1 2 1 4 5 6 6 7 7 6 4 5 4 2 0 2 4 2 1 4 4 6 8 10 8 6 6 5 5 5 1 2 4 3 3 2 1 1 1 2 1 0 3 4 4 4 4 1 4 3 1 1 1 2 2 1 3 2 2 2 4 6 8 9 10 10 10 8 7 8 8 8 7 8 8 7 7 7 8 9
6 6 5 4 3 2 2 1 2 2 3 6 7 5 3 4 3 3 4 4 3 0 2 2 3 2 3 4 6 8 9 8 4 3 5 6 5 4 3 3 1 1 2 3 3 0 2 1 2 3 5 5 6 7 3 3 5 4 3 3 3 3 2 3 4 1 2 0 5 7 8 10 9 9 9 8 7 7 8 8 8 8 8 8 8 9 10 9
6 5 5 4 3 2 2 2 1 2 4 6 4 1 0 1 1 2 3 4 4 2 3 2 3 4 4 6 9 9 5 3 1 3 6 7 4 3 3 3 2 1 3 2 3 2 2 1 4 6 4 1 1 2 3 4 5 4 3 3 3 2 0 3 3 1 2 2 4 6 7 10 9 8 8 7 8 10 10 10 10 10 9 8 9 11 10 8
6 5 5 4 3 2 1 2 1 2 4 5 2 2 2 3 1 2 1 3 3 3 3 2 3 3 5 5 7 5 1 2 3 4 7 7 4 3 4 4 4 4 3 4 4 1 1 3 6 5 2 6 6 5 6 4 4 3 1 1 2 2 1 4 3 0 1 1 4 6 7 10 11 9 9 10 10 12 12 11 10 10 9 8 9 10 9 8
8 7 5 4 3 1 1 2 2 1 5 4 3 3 1 2 2 4 2 1 1 2 2 3 3 3 4 2 5 5 2 4 5 4 9 9 4 2 4 5 5 4 5 5 4 3 2 4 6 2 5 5 4 4 4 3 2 1 2 1 1 1 1 0 1 1 3 2 3 6 6 9 12 9 10 13 13 13 13 10 9 9 9 9 10 9 8 9
9 9 8 6 3 2 0 2 2 1 3 5 6 5 1 2 3 3 1 1 1 1 0 1 1 2 4 2 6 7 2 1 3 6 12 10 4 2 3 6 6 4 5 6 6 6 3 1 1 5 5 2 3 3 2 2 1 4 5 4 4 3 1 1 1 1 4 1 3 5 5 7 8 7 8 9 9 11 11 9 8 9 10 9 8 8 7 8
10 10 9 8 6 3 1 3 2 0 2 3 6 8 6 4 4 3 1 1 2 1 3 0 1 2 5 6 7 5 0 1 2 6 14 10 3 3 2 3 4 5 6 7 7 6 4 1 0 5 4 1 3 3 4 5 2 3 4 4 3 4 3 2 4 2 2 2 2 2 4 5 4 4 6 4 3 7 7 8 10 10 9 8 7 8 7 7
11 10 10 10 9 6 2 2 1 2 2 1 3 6 8 6 2 2 1 1 2 1 1 3 3 5 7 6 6 3 2 1 3 5 12 5 1 2 1 2 1 2 5 5 3 2 1 1 2 5 5 4 3 2 4 6 2 2 3 3 2 3 3 4 4 2 1 3 3 2 0 6 5 5 9 8 8 10 7 7 11 10 8 8 8 8 7 7
12 11 10 11 12 9 1 1 4 2 2 1 3 4 6 6 2 1 1 1 3 4 4 1 0 5 8 7 8 4 1 3 3 4 5 2 1 2 1 4 3 1 3 1 1 0 3 3 2 4 4 5 4 3 4 7 3 2 3 4 3 2 3 2 2 0 2 3 3 5 4 5 7 6 10 11 13 13 8 8 11 9 8 8 7 6 5 5
14 13 12 12 14 11 2 2 2 1 1 3 5 3 6 5 3 1 1 1 1 4 3 1 1 3 5 6 8 4 2 4 4 1 2 1 1 2 1 4 4 5 3 3 3 1 2 5 5 5 4 4 3 1 3 8 4 2 3 1 2 4 3 2 2 1 2 4 4 5 5 2 7 5 7 10 10 10 9 9 11 10 8 6 6 6 6 6
12 14 14 14 15 14 7 2 1 1 2 5 4 4 6 4 2 1 1 2 2 3 1 2 3 3 4 5 6 4 3 2 0 1 1 1 1 1 1 2 2 6 6 5 5 1 1 3 3 4 4 4 2 4 2 3 4 3 4 3 5 5 4 3 2 2 3 3 4 6 6 2 7 5 5 6 6 8 9 8 9 7 4 6 7 6 6 5
7 11 13 14 15 16 12 6 6 4 3 5 3 6 5 2 1 2 2 3 1 2 1 1 2 5 8 7 5 5 4 2 2 3 2 1 1 2 1 0 3 2 3 4 3 2 2 1 1 1 1 3 5 5 5 3 4 4 4 4 5 3 4 3 1 3 3 5 5 7 11 5 4 4 4 4 6 8 6 4 2 3 6 6 5 6 5 5
6 6 11 16 18 19 13 6 10 11 4 3 5 6 2 1 1 4 5 1 1 2 2 1 3 8 11 10 6 5 4 3 4 6 3 2 2 1 2 1 1 2 2 2 1 2 3 1 1 0 1 3 6 4 5 4 3 3 3 4 4 2 4 3 2 4 1 6 4 2 9 8 5 5 2 1 4 4 2 1 2 4 6 3 4 6 6 6
7 5 8 16 21 21 15 6 10 13 5 2 5 3 1 1 1 4 3 2 0 3 4 4 6 8 10 9 6 6 7 5 5 7 5 4 4 4 6 5 4 2 1 3 2 1 2 3 3 2 3 1 5 5 4 5 3 1 3 5 4 0 2 1 1 1 3 6 4 3 1 5 9 6 1 3 4 3 4 3 3 5 6 6 7 6 6 6
6 6 6 15 22 22 18 9 7 12 9 7 5 3 1 3 4 6 5 2 1 1 4 6 8 10 10 8 5 6 5 4 6 6 4 5 5 6 7 7 8 6 3 5 4 1 1 2 4 4 2 2 5 5 3 0 2 4 5 6 5 3 2 3 4 2 3 4 4 4 2 3 7 6 5 7 6 5 5 5 5 6 6 6 7 7 6 6
5 7 5 11 20 21 20 13 8 12 14 11 5 3 3 5 5 8 9 3 1 1 3 6 8 10 10 8 7 9 5 3 8 7 4 6 4 5 7 7 9 6 2 3 4 5 4 4 4 7 3 5 8 6 7 6 5 7 5 5 5 5 4 4 3 3 4 2 3 3 0 3 3 3 4 3 2 5 4 2 2 4 1 4 6 6 6 7
6 8 5 6 15 19 20 15 11 16 16 11 4 3 5 7 4 5 7 3 2 2 4 6 7 7 7 4 4 8 3 2 8 7 5 7 6 6 7 8 11 8 4 4 3 5 6 5 5 6 5 12 12 7 7 7 4 5 3 3 5 4 3 2 2 3 2 1 2 2 3 5 4 7 9 5 6 7 6 5 5 9 6 4 5 6 6 7
4 6 5 6 11 17 20 16 14 19 15 8 3 4 5 6 2 2 3 1 2 5 7 7 5 4 6 2 1 4 0 2 7 5 4 6 6 7 7 7 11 12 8 6 2 3 5 3 1 3 3 10 9 6 6 6 3 3 3 5 4 2 3 2 2 1 3 2 5 3 5 6 4 9 10 9 12 10 7 7 7 8 7 4 5 7 7 7
3 4 5 8 11 14 17 17 17 18 11 4 5 4 4 5 2 2 1 3 1 7 8 5 4 5 6 4 3 6 2 2 6 5 3 5 4 8 10 7 9 14 13 9 3 2 5 2 2 1 2 3 2 0 1 1 2 4 4 5 2 4 1 2 1 2 1 5 5 3 8 7 3 7 4 2 7 9 8 8 8 8 8 7 8 9 9 7
5 5 5 9 12 13 15 18 19 15 6 3 4 3 3 4 2 2 1 3 1 6 6 4 5 5 7 6 5 8 6 4 6 5 4 4 3 8 12 8 7 13 14 10 5 2 3 3 3 2 1 2 3 1 1 2 3 4 2 2 3 1 2 2 3 3 3 6 5 5 9 7 6 9 6 3 4 7 8 9 9 9 9 7 8 9 8 3
6 4 3 9 15 13 15 19 17 9 2 3 4 3 3 4 4 2 1 2 2 3 6 6 5 6 7 7 6 8 9 7 8 6 4 5 4 7 12 8 6 10 12 11 7 2 2 4 3 3 4 1 2 0 5 2 3 4 3 2 1 2 4 4 4 3 3 5 6 6 7 6 7 8 7 7 8 8 9 9 9 10 9 8 8 9 6 5
5 2 1 12 19 16 18 19 11 3 2 3 3 3 4 4 4 5 5 3 1 1 2 3 5 6 7 8 5 6 8 8 9 7 6 6 5 5 9 10 7 8 10 11 8 3 2 3 3 2 5 0 2 4 8 8 4 2 1 2 2 1 2 1 2 2 4 4 4 5 6 7 7 4 6 9 8 7 9 8 8 9 8 7 5 4 5 6
4 3 2 14 22 21 20 12 3 3 3 3 3 5 5 4 4 6 7 3 2 1 1 1 1 1 2 6 5 4 6 8 8 7 5 7 7 4 4 7 9 8 8 8 8 5 4 4 4 2 1 3 6 7 7 8 9 9 7 8 8 6 3 2 4 4 2 2 3 4 5 10 7 3 4 7 3 2 3 5 4 4 4 3 2 3 3 4
3 4 4 16 24 24 16 4 2 3 2 3 5 5 5 4 4 7 6 3 2 1 1 2 1 0 1 1 1 1 2 5 7 7 6 7 7 4 2 2 5 11 8 6 9 7 3 3 4 4 4 5 5 4 4 4 4 5 6 7 7 7 6 5 6 4 2 2 3 1 5 12 9 2 4 5 1 3 4 5 1 2 1 2 3 3 2 1
3 3 5 17 26 22 11 4 5 4 4 4 5 5 6 5 5 7 7 6 4 3 3 2 1 1 1 1 2 2 2 2 3 2 2 4 3 1 6 8 2 7 8 4 6 4 2 2 4 3 1 1 1 0 1 1 2 2 5 5 4 5 6 6 5 3 2 4 4 3 6 11 8 1 1 2 3 2 1 1 2 4 3 3 4 4 3 3
4 3 1 12 23 18 8 5 6 6 6 5 5 6 6 4 7 8 8 9 7 4 5 6 4 4 3 1 2 0 1 1 1 2 2 1 1 3 6 9 7 2 3 1 2 3 3 3 4 3 2 1 1 1 2 2 0 2 3 4 5 6 6 5 4 3 2 6 8 6 7 10 6 3 3 2 2 2 4 3 4 5 5 4 4 5 5 5
3 4 2 7 14 12 6 4 4 7 9 8 8 9 7 4 6 9 10 9 8 6 6 6 6 6 4 3 3 3 2 1 2 2 2 1 0 3 6 8 7 4 2 3 3 0 3 4 5 6 7 7 5 3 3 3 2 2 4 7 9 10 9 6 4 4 6 9 10 8 7 11 9 1 4 0 3 4 5 3 3 4 6 5 4 5 5 5
2 3 3 4 6 7 5 3 3 4 7 9 8 8 11 8 5 8 10 8 8 9 7 6 7 7 5 6 7 7 8 7 5 3 2 1 1 2 4 4 5 4 3 6 8 3 1 1 4 8 9 10 7 3 4 6 6 5 8 11 11 12 12 8 4 6 9 9 9 10 10 14 16 10 4 4 4 4 4 3 4 5 6 6 6 6 5 6
3 3 4 5 3 4 5 5 6 5 5 7 6 6 11 11 6 6 7 6 8 9 7 5 7 8 8 9 9 8 10 10 9 9 8 5 2 2 2 3 5 4 4 5 6 3 3 2 5 6 9 10 7 3 2 7 8 10 12 12 11 11 12 10 10 12 11 8 9 13 12 13 19 18 11 8 7 7 6 6 6 6 6 6 6 6 7 8
4 3 3 4 3 5 6 7 9 10 9 8 5 5 9 11 10 8 6 6 7 9 7 5 8 11 12 12 10 7 8 9 9 10 10 7 4 2 2 2 3 4 3 3 3 3 4 3 5 3 7 10 9 7 4 2 4 6 8 10 11 12 13 13 16 17 14 10 10 13 13 14 18 19 12 7 9 9 8 7 7 5 5 6 6 7 8 9
4 3 3 3 2 5 7 8 9 10 12 9 6 6 8 11 13 10 7 6 7 9 9 8 10 13 13 12 10 8 9 9 8 9 9 7 6 4 1 0 1 3 3 3 2 2 3 3 2 1 5 12 12 8 5 6 6 5 7 7 7 11 15 16 17 18 16 14 14 15 17 17 17 16 11 6 8 9 7 8 10 9 8 7 8 9 9 10
5 2 2 2 3 3 4 6 8 7 9 9 7 8 8 9 12 9 8 9 8 8 11 12 12 12 14 13 11 10 10 9 9 10 9 7 6 5 4 3 2 2 2 3 1 1 2 1 1 3 2 10 13 10 6 7 9 8 9 9 8 11 14 15 14 13 13 15 16 17 18 17 15 13 10 10 11 9 9 12 12 11 9 7 8 9 10 10
9 5 3 2 3 5 4 4 6 7 7 7 7 9 9 10 12 8 6 10 10 8 10 15 14 9 11 13 13 12 11 10 10 9 9 10 8 7 5 4 6 4 2 2 2 2 3 1 1 3 2 6 8 8 9 9 9 9 11 13 15 14 12 11 10 11 13 14 15 14 13 14 14 10 8 11 12 10 12 14 12 10 9 8 9 10 10 10
12 9 5 2 3 5 5 4 4 6 6 8 10 11 10 10 11 9 6 6 10 10 10 13 13 8 8 13 15 15 12 9 6 2 4 5 4 5 5 5 7 9 6 4 3 3 5 4 2 3 3 4 3 4 5 4 4 7 11 15 18 16 13 12 12 13 15 12 10 10 10 12 13 10 9 12 13 11 13 13 11 10 10 9 9 10 11 12
Wind_Direction
172 164 158 159 157 164 180 210 266 276 269 234 207 203 203 195 190 187 188 192 195 198 202 205 208 223 229 246 262 268 271 240 215 219 211 222 171 166 179 185 197 192 198 197 199 237 240 229 206 197 192 186 98 120 223 334 11 298 133 226 250 241 229 174 87 82 134 135 145 163 176 158 141 159 125 143 227 122 146 146 111 79 76 99 120 132 133 140
171 166 160 156 153 160 182 205 232 247 264 227 209 214 208 199 197 192 191 195 198 203 207 209 215 228 235 253 264 272 270 231 236 236 204 187 166 164 174 177 184 182 188 189 214 244 250 220 166 196 214 176 144 157 225 94 115 241 177 219 250 348 4 6 55 54 52 122 147 162 197 186 143 156 138 159 189 172 178 179 157 124 101 115 129 138 143 148
173 175 166 158 162 169 192 218 232 287 318 255 220 212 205 199 198 194 196 200 201 205 209 214 221 233 245 255 263 269 268 239 253 229 169 167 165 167 170 167 164 166 182 197 249 274 291 306 169 200 230 178 196 131 162 127 158 197 56 215 275 22 40 25 52 64 25 54 135 149 196 188 135 142 143 207 201 177 194 195 174 173 168 156 150 147 150 155
177 185 174 169 178 183 195 190 140 284 316 303 255 217 200 197 199 199 200 203 207 209 211 217 221 235 246 257 265 265 273 252 247 151 156 162 164 167 162 154 149 156 179 193 285 298 295 295 228 215 246 189 119 109 164 155 122 103 88 170 343 349 40 34 41 50 19 4 92 124 121 177 134 120 156 203 215 194 209 203 187 193 180 162 157 157 157 160
181 185 181 184 187 189 182 176 193 199 290 308 253 219 196 197 204 202 203 207 211 212 213 217 221 235 243 259 262 240 357 235 124 128 157 161 161 158 145 139 134 146 153 128 303 278 266 259 234 234 261 178 128 150 161 130 81 133 134 92 35 357 42 40 44 35 354 330 67 111 126 159 109 109 188 207 223 201 201 139 129 158 157 154 156 157 161 166
191 190 191 194 194 194 189 194 200 200 241 252 234 219 200 196 205 205 209 210 212 215 217 218 221 233 239 259 259 205 238 209 92 145 158 155 156 146 128 116 107 130 142 133 278 251 252 248 216 208 246 191 158 168 124 114 108 194 116 82 39 16 65 37 50 18 337 357 76 106 132 72 99 201 207 213 230 171 110 93 71 67 125 145 151 154 165 174
204 202 199 199 195 192 198 214 209 209 224 229 226 223 206 195 201 206 210 211 216 216 216 221 223 232 231 228 215 206 237 235 89 164 161 152 147 134 113 95 88 117 131 265 255 216 225 230 208 217 237 209 170 157 111 128 149 216 141 98 44 35 80 55 59 15 354 25 36 13 321 49 152 235 229 218 233 193 120 107 98 93 119 138 146 159 173 178
211 202 205 210 203 194 201 214 223 221 219 226 224 219 211 198 196 199 204 210 215 215 217 222 222 231 214 187 183 224 216 145 122 162 163 153 142 127 101 73 55 81 23 284 277 267 242 223 225 234 211 252 147 136 150 166 173 237 129 112 112 73 92 91 101 99 23 29 18 7 298 287 126 86 335 249 236 222 151 121 120 115 124 144 154 167 174 179
204 194 209 222 213 203 215 217 219 211 214 246 223 209 211 202 197 196 200 204 209 213 215 216 220 226 203 188 224 256 206 138 146 163 163 155 138 119 92 64 31 348 285 265 286 301 286 234 241 264 88 13 109 125 159 158 173 260 111 119 130 112 103 124 130 110 59 58 45 350 258 228 84 66 272 247 233 223 172 133 138 133 144 165 164 172 174 179
190 190 203 214 211 204 217 216 192 169 207 272 224 200 203 200 201 199 202 202 206 209 208 212 213 206 193 201 225 245 149 127 140 160 163 156 133 111 79 81 104 305 272 209 294 307 322 328 323 21 30 38 93 92 38 61 294 58 109 105 110 123 123 198 153 120 120 67 85 285 276 227 115 130 255 251 239 204 166 147 155 151 166 183 178 181 180 183
182 189 192 194 198 199 210 206 170 136 317 287 236 199 197 200 203 205 208 201 203 206 203 205 199 193 197 228 240 224 153 143 148 155 160 158 135 119 97 146 134 347 315 151 56 360 356 346 342 7 15 112 113 64 48 41 273 122 122 103 111 145 137 186 171 140 156 65 133 284 303 275 127 189 237 224 190 156 160 172 176 174 188 195 192 186 184 190
174 179 181 185 188 190 207 200 180 157 225 243 210 189 191 196 200 205 206 198 202 202 196 197 193 190 206 260 259 155 140 154 154 152 157 154 129 116 112 118 137 11 334 7 99 59 66 8 348 17 10 100 125 94 97 228 256 118 162 138 147 169 158 189 175 150 176 152 224 359 313 266 187 223 239 193 148 146 166 195 191 192 201 204 202 186 183 194
161 168 176 181 184 186 201 191 183 228 225 218 183 180 188 190 196 202 199 194 198 194 188 192 183 177 205 262 161 113 134 151 147 142 144 136 111 93 93 76 94 66 348 74 116 109 103 45 353 57 34 352 106 138 195 195 101 139 220 233 153 182 196 193 166 139 156 135 185 109 328 266 219 228 233 152 147 152 170 205 199 197 200 199 201 187 183 191
149 158 170 183 193 187 198 197 201 249 235 221 190 187 186 182 193 198 195 193 193 189 182 178 166 162 187 119 111 111 132 139 134 137 141 127 108 96 85 75 88 95 81 103 114 110 99 60 17 90 49 13 98 167 175 125 182 160 175 269 205 221 182 169 144 147 164 121 197 140 236 271 284 256 160 122 147 156 185 215 213 212 203 191 191 189 193 194
158 158 165 186 196 164 170 175 214 251 232 216 196 187 175 175 185 186 190 189 184 179 171 172 168 166 203 173 129 131 132 131 133 157 150 133 137 130 101 91 94 94 99 106 104 94 84 52 31 104 56 2 103 137 146 147 227 188 144 254 227 219 153 138 137 159 163 317 208 166 223 263 272 190 128 122 136 160 213 230 229 227 210 191 184 189 202 207
165 165 169 179 171 152 140 128 177 220 225 203 188 176 160 161 164 170 179 173 168 163 149 161 179 193 277 152 139 150 149 145 156 168 158 144 139 127 119 106 90 84 90 98 96 83 60 33 19 72 80 328 185 181 171 155 220 205 183 241 209 183 181 165 287 158 130 112 200 205 253 273 258 176 168 176 164 171 209 234 238 235 221 203 187 188 200 209
165 171 174 172 166 159 156 165 192 219 236 195 165 144 137 131 129 136 148 146 139 141 129 22 172 180 300 121 140 164 152 144 156 166 164 150 125 127 137 128 101 101 102 93 85 71 32 42 53 314 107 193 227 207 169 180 228 207 189 240 239 175 181 176 358 338 146 149 235 220 234 264 276 260 210 205 190 179 197 220 228 227 222 215 198 195 200 203
164 167 164 146 127 141 157 172 225 246 233 158 128 120 122 121 118 109 116 129 113 102 53 334 194 182 242 174 143 116 120 134 149 161 166 151 131 143 150 138 138 146 144 125 301 151 77 50 46 257 168 219 239 194 174 202 229 190 182 216 230 210 231 224 121 163 167 169 264 231 230 248 264 271 258 228 201 190 206 214 217 223 223 224 218 214 212 208
148 139 133 118 101 81 130 158 240 257 180 126 114 107 106 111 118 112 128 150 127 91 184 194 188 185 142 143 109 86 105 129 137 144 164 157 142 153 143 155 164 174 171 155 211 221 111 98 53 239 191 207 223 204 203 187 38 24 49 169 249 270 257 145 102 140 157 153 238 236 243 247 249 261 266 253 220 204 219 222 217 223 226 230 231 231 228 220
149 131 122 113 97 60 65 79 260 232 161 136 120 111 117 126 139 138 160 203 222 60 42 153 176 124 105 108 101 107 108 115 121 122 163 164 152 161 182 180 123 359 232 175 166 199 54 131 196 219 217 212 212 209 199 56 42 17 8 5 326 343 13 91 96 11 22 57 239 237 249 258 254 255 261 268 265 252 246 245 237 226 222 221 224 233 233 232
149 139 130 116 103 85 64 8 266 198 177 155 136 174 191 124 191 155 154 216 225 120 71 67 90 79 94 116 135 140 113 90 108 129 164 177 170 168 183 181 132 201 238 128 99 58 51 181 222 222 219 123 164 168 91 53 39 33 9 351 336 311 34 75 83 260 46 58 262 270 275 270 263 259 263 264 266 262 250 246 245 236 230 220 219 234 235 235
165 155 147 135 111 94 63 346 325 178 178 171 202 278 357 25 13 46 74 215 196 126 108 118 118 88 82 116 159 186 220 136 135 139 171 181 185 178 165 176 185 187 173 100 85 84 114 220 237 227 131 75 55 51 58 38 29 45 44 6 329 284 81 58 44 337 94 128 266 294 299 281 272 260 256 251 247 251 244 237 239 237 235 225 220 230 232 231
192 181 170 160 136 98 39 335 339 147 165 184 255 275 5 8 23 31 4 243 158 139 165 176 178 144 114 124 191 205 213 152 148 166 177 176 180 199 165 177 203 184 157 154 159 173 170 225 231 171 95 92 72 55 64 52 29 199 187 170 250 224 114 241 313 268 218 217 293 310 302 279 276 265 252 244 237 247 252 247 246 239 230 224 223 222 215 214
201 197 190 176 174 196 275 338 347 73 175 219 247 243 246 344 5 19 335 282 136 144 214 164 200 177 150 141 180 191 240 153 136 158 175 179 161 159 188 188 205 199 179 185 191 208 205 223 205 105 93 114 111 110 131 126 242 223 200 206 224 233 220 175 88 240 232 249 344 321 307 276 267 255 252 249 230 238 255 257 253 245 234 230 234 233 219 214
210 208 202 189 190 204 254 325 338 171 219 246 256 242 243 287 347 20 19 269 192 137 349 81 142 199 150 122 158 179 359 59 33 143 171 187 158 137 199 203 206 212 201 193 200 225 220 247 78 113 103 122 144 169 178 172 233 253 217 213 225 270 303 58 54 14 319 322 289 339 331 292 291 273 268 288 235 230 241 244 249 250 241 230 236 240 234 233
220 217 211 198 188 188 234 322 159 187 188 150 283 249 238 253 312 37 81 314 239 171 96 161 157 177 161 139 155 132 73 188 9 116 160 189 259 120 193 190 116 229 216 196 200 230 174 326 17 120 132 132 149 228 186 165 192 270 270 333 354 324 7 39 28 25 345 281 246 143 225 276 302 293 270 279 271 254 237 230 242 247 237 217 220 228 223 221
225 221 220 210 191 181 184 48 163 175 121 139 286 245 210 216 232 341 99 339 260 168 137 172 233 174 165 164 170 137 105 166 77 92 145 189 220 65 95 170 117 226 250 86 116 96 128 150 96 118 135 137 161 231 175 155 150 236 263 325 352 62 77 74 47 42 246 310 270 184 172 268 282 257 243 249 259 263 253 238 243 243 232 214 201 199 182 169
225 224 224 219 202 190 159 75 177 197 55 340 308 219 177 187 209 339 118 208 231 146 141 157 108 134 142 170 181 150 95 144 127 84 30 43 177 49 94 193 169 189 199 110 163 289 103 162 164 156 162 162 170 225 178 159 144 226 236 276 56 86 90 105 74 339 312 358 302 199 146 274 272 243 223 227 242 262 255 237 242 242 223 186 150 136 122 110
218 220 223 224 213 205 196 175 226 288 347 347 345 166 156 167 206 40 94 198 141 110 122 126 125 123 126 162 187 156 108 93 72 181 77 62 53 34 198 238 243 196 186 186 196 340 30 186 180 161 172 178 126 34 5 149 141 207 197 94 70 80 62 57 69 23 17 338 268 190 154 243 276 250 200 202 224 249 246 233 240 238 187 135 122 122 116 108
213 213 220 219 209 206 209 224 238 243 324 353 67 136 141 141 155 116 159 210 139 96 68 85 141 151 149 154 168 171 147 77 59 125 142 162 75 343 259 334 312 225 169 206 212 92 109 180 175 139 139 139 115 63 21 64 121 160 155 91 73 68 41 36 41 64 53 285 262 178 175 188 291 267 170 164 205 218 234 246 223 137 111 111 128 141 145 144
223 213 212 209 203 199 201 227 229 227 290 4 114 121 138 64 71 173 184 220 14 121 134 155 144 147 165 166 154 179 167 119 142 148 144 162 128 310 250 142 4 24 39 312 297 115 143 172 118 69 350 119 110 72 23 26 75 114 127 112 91 31 22 22 355 59 128 259 292 174 184 182 240 263 98 103 215 201 229 320 77 112 121 145 176 166 160 156
229 225 207 207 207 201 196 211 219 220 243 114 117 86 66 109 227 225 195 87 151 184 159 172 162 156 177 176 155 175 168 140 164 166 151 161 169 186 199 189 154 133 254 228 215 108 182 203 155 79 331 178 123 85 33 5 3 93 141 124 112 14 6 359 254 166 213 243 289 329 226 211 240 255 300 279 254 231 226 199 126 133 156 188 198 180 163 159
227 232 215 206 207 203 202 207 204 210 201 142 112 50 67 182 207 212 199 151 177 193 137 150 161 161 172 180 168 162 162 156 169 175 160 161 182 200 211 213 185 187 223 185 177 173 241 254 148 117 336 232 169 141 130 234 214 185 166 141 145 164 195 238 226 222 240 244 281 323 8 262 267 280 265 250 246 249 233 189 166 167 169 183 189 180 177 182
227 227 227 210 206 205 208 208 195 194 175 135 100 70 134 209 212 196 201 192 61 44 103 132 151 158 171 187 172 156 165 183 167 170 169 161 188 207 211 225 210 209 222 176 186 179 207 277 183 169 179 179 192 192 163 155 174 197 186 159 173 171 188 216 193 211 242 258 298 312 290 208 234 275 245 216 274 302 307 308 255 272 288 126 157 187 194 197
243 225 227 219 211 210 209 203 189 182 161 126 101 123 170 212 215 193 201 176 103 115 107 123 138 155 182 202 168 158 164 177 167 172 178 177 199 203 194 207 209 206 185 195 212 169 204 250 181 164 160 164 184 204 161 131 154 217 197 184 217 199 177 193 174 179 170 336 295 237 241 222 212 271 266 256 291 300 303 302 290 286 283 146 175 225 218 206
268 236 229 223 218 215 209 199 187 178 158 123 143 176 196 215 196 173 207 124 143 144 126 135 142 157 185 195 203 195 19 75 163 171 190 198 212 210 203 200 198 200 190 187 205 157 186 249 114 95 145 169 184 201 169 148 171 197 175 200 214 145 136 174 271 55 102 264 258 195 256 281 299 286 263 235 251 257 254 259 252 257 260 229 237 251 248 232
282 244 231 229 225 218 211 205 190 176 157 146 198 203 214 215 167 150 255 335 157 150 140 154 170 182 186 177 195 197 165 108 165 173 182 196 222 214 213 213 192 198 201 195 217 191 165 221 304 70 164 206 271 294 153 67 114 138 176 203 133 45 43 148 201 350 148 244 258 203 245 272 282 276 284 190 232 236 231 235 236 244 251 251 254 256 259 247
284 253 248 239 224 214 210 202 183 166 148 180 207 233 236 219 203 176 266 326 241 173 177 185 179 185 190 187 187 180 171 161 173 186 180 178 219 208 202 212 196 199 205 197 211 247 159 202 280 360 26 305 359 47 183 352 48 118 182 218 106 111 244 146 175 231 219 238 263 249 250 254 231 246 288 313 233 221 224 224 226 237 239 238 249 257 259 220
277 259 258 220 211 209 198 183 168 154 159 183 188 223 225 226 238 225 247 326 329 209 209 208 200 199 198 195 176 166 179 180 169 182 193 178 210 204 188 194 201 198 198 192 203 222 149 192 237 336 336 332 36 192 195 207 15 34 356 327 96 165 185 171 187 194 196 225 251 263 263 256 235 238 259 256 232 217 221 220 220 225 225 225 237 246 234 175
249 262 215 185 191 194 178 165 156 162 193 177 179 187 185 209 229 224 229 232 19 327 229 222 220 214 211 212 192 161 182 192 176 186 200 181 195 212 184 180 188 190 187 188 198 191 138 196 207 320 334 10 160 219 196 179 168 150 266 233 206 164 125 181 246 185 180 205 229 255 266 261 243 215 226 237 234 230 222 208 207 211 215 221 222 217 198 185
221 265 191 167 175 172 159 153 164 192 194 184 181 177 177 193 197 200 216 207 109 34 30 50 225 239 241 225 213 165 176 196 192 191 200 192 200 221 191 177 180 175 173 185 194 186 173 188 176 150 273 214 211 217 198 183 187 188 191 197 201 193 161 206 250 223 179 190 216 225 262 269 253 178 235 249 235 216 170 140 167 195 194 195 164 152 174 191
228 248 160 159 169 161 150 168 216 174 223 206 176 177 178 190 190 185 190 170 144 208 128 75 121 102 343 259 256 47 156 203 204 196 203 205 200 217 324 334 178 165 159 182 199 193 160 154 177 187 198 206 213 208 184 176 187 205 218 209 200 193 182 192 217 215 171 221 250 229 257 269 267 224 264 269 155 128 107 92 94 258 198 159 168 168 156 192
227 232 142 162 172 162 152 218 201 184 238 203 175 183 173 180 194 180 176 177 182 189 186 198 207 202 255 88 68 18 14 227 219 202 214 209 196 300 350 357 11 160 156 178 198 187 127 138 189 213 214 66 37 358 220 112 121 227 246 220 196 203 201 197 202 194 173 195 213 221 244 263 282 332 171 159 119 131 95 65 249 254 249 209 207 209 185 195
225 256 126 174 181 173 171 213 197 204 224 203 196 200 191 202 200 184 180 185 186 178 187 206 204 201 226 129 108 39 31 48 312 354 353 283 50 31 14 3 2 91 134 181 190 174 184 183 175 184 214 269 353 336 325 348 120 232 232 201 207 217 201 192 205 211 221 209 202 209 237 253 277 10 59 101 134 205 251 237 208 225 247 242 226 220 201 191
232 239 238 192 193 194 207 221 207 215 216 211 211 205 201 213 205 193 186 182 184 177 182 200 190 176 183 164 169 227 227 196 278 321 353 310 359 50 25 5 8 41 55 360 2 148 197 197 181 185 207 219 221 218 211 198 186 225 220 203 209 211 195 181 177 196 226 226 216 219 243 255 260 349 60 100 199 220 248 234 208 235 256 263 255 238 220 201
236 219 201 184 197 218 235 250 244 235 220 211 211 207 205 206 204 196 190 188 189 185 185 192 177 167 172 173 185 218 221 208 215 245 268 247 196 59 24 24 46 47 28 17 13 23 134 249 219 206 219 224 217 204 163 151 158 198 216 212 209 208 204 195 177 200 219 228 233 232 237 256 262 254 239 254 239 225 226 203 218 248 253 257 261 253 237 223
238 233 205 179 183 219 233 240 233 233 230 216 205 205 207 207 204 196 199 203 191 188 200 193 173 176 182 182 191 210 211 200 200 220 236 237 187 93 48 64 60 28 20 22 5 45 103 293 259 234 248 250 249 270 137 141 169 200 211 212 213 212 207 203 212 223 221 222 240 240 232 248 262 258 249 252 258 256 251 242 244 248 241 239 236 232 239 249
233 255 230 204 202 203 210 220 216 219 231 230 225 224 215 209 205 199 202 209 194 189 199 201 195 196 187 184 192 202 198 195 200 211 221 225 198 135 54 51 38 7 36 45 356 67 117 244 266 275 284 278 280 295 299 209 204 212 216 214 211 212 210 211 223 229 227 226 241 249 241 240 256 262 257 247 256 264 265 264 266 269 269 269 259 248 253 263
228 260 276 274 248 211 211 208 199 212 226 226 229 235 224 216 214 203 179 185 204 202 199 203 206 202 197 194 194 197 194 192 201 210 208 207 198 182 180 153 6 360 47 81 7 53 129 235 284 22 296 280 275 285 303 294 285 276 259 242 221 216 215 217 226 231 234 240 247 255 257 252 255 265 274 271 265 272 282 283 285 288 287 284 276 264 258 255
220 239 271 281 264 252 251 214 182 196 219 219 224 229 228 228 224 211 181 180 194 199 200 211 211 198 200 204 202 209 205 190 199 207 193 186 192 191 205 196 150 23 43 98 56 32 146 214 45 92 269 273 272 276 281 277 275 273 272 269 257 242 231 225 229 233 238 244 247 251 261 264 261 266 280 281 276 285 291 284 282 284 283 279 269 257 251 251
236 275 325 323 252 235 253 231 186 190 206 209 219 223 223 228 226 223 210 194 191 188 192 207 214 202 200 208 210 218 216 204 212 212 184 185 195 193 204 193 147 133 127 137 120 117 159 180 58 111 205 258 263 259 252 251 260 265 264 257 248 244 242 237 231 228 230 236 242 247 254 260 263 266 274 275 276 279 277 275 277 281 280 274 264 256 253 258
232 265 277 291 272 232 232 238 208 206 206 201 212 219 220 225 223 225 235 202 193 198 193 199 208 206 205 213 215 219 219 213 220 215 152 176 186 171 186 189 161 154 155 159 148 142 161 167 141 159 209 258 244 213 219 221 241 250 242 239 238 238 244 249 245 238 233 229 233 241 244 255 268 274 266 266 272 271 271 275 277 276 275 267 259 257 257 257